WZZ2054 EPMO-LUKK

Flight info

Callsign WZZ2054
Flight time 1h 22m
Altitude 37000
Route XIMBA DCT OMAVA DCT ROBTU DCT KENIN DCT SAT DCT SOMET DCT BUZZE DCT UNIRA
Aircraft A321/M-SDE3FGHIRWY/LB1

Departure

Time 2026-04-30 19:06
Airport Warsaw Modlin Airport (EPMO)

Arrival

Time 2026-04-30 20:28
Airport Chişinău International Airport (LUKK)
Time Latitude Longitude Altitude Speed Heading
2026-04-30 18:31 52.44774 20.65524 354 ft 0 kts 188°
2026-04-30 18:52 52.44775 20.65524 349 ft 1 kts 187°
2026-04-30 18:52 52.44789 20.65526 356 ft 3 kts 159°
2026-04-30 18:53 52.44802 20.65511 360 ft 3 kts 116°
2026-04-30 18:53 52.44808 20.65481 359 ft 3 kts 94°
2026-04-30 18:53 52.44809 20.65457 357 ft 1 kts 81°
2026-04-30 18:53 52.44808 20.65456 357 ft 0 kts 81°
2026-04-30 18:57 52.44809 20.65459 357 ft 1 kts 81°
2026-04-30 18:58 52.44822 20.65606 350 ft 13 kts 82°
2026-04-30 18:58 52.44834 20.65754 349 ft 14 kts 82°
2026-04-30 18:58 52.44849 20.65917 349 ft 15 kts 81°
2026-04-30 18:59 52.44953 20.66107 356 ft 13 kts 344°
2026-04-30 19:00 52.45022 20.66066 351 ft 0 kts 340°
2026-04-30 19:03 52.45033 20.66059 349 ft 6 kts 340°
2026-04-30 19:03 52.45182 20.65993 349 ft 8 kts 349°
2026-04-30 19:04 52.45191 20.65944 354 ft 0 kts 265°
2026-04-30 19:05 52.45191 20.65942 350 ft 0 kts 265°
2026-04-30 19:05 52.45113 20.65122 350 ft 114 kts 261°
2026-04-30 19:06 52.44756 20.61701 1766 ft 150 kts 262°
2026-04-30 19:06 52.44592 20.59988 2613 ft 152 kts 265°
2026-04-30 19:06 52.44268 20.56393 3681 ft 170 kts 265°
2026-04-30 19:07 52.44815 20.52645 4312 ft 193 kts 315°
2026-04-30 19:07 52.45579 20.50675 4454 ft 223 kts 288°
2026-04-30 19:08 52.44165 20.45864 5170 ft 277 kts 209°
2026-04-30 19:08 52.40420 20.46314 6548 ft 286 kts 140°
2026-04-30 19:08 52.38990 20.48565 7325 ft 285 kts 127°
2026-04-30 19:09 52.36358 20.53513 8921 ft 291 kts 126°
2026-04-30 19:09 52.35026 20.56029 9726 ft 294 kts 126°
2026-04-30 19:09 52.33605 20.58475 10514 ft 300 kts 132°
2026-04-30 19:10 52.30107 20.63092 10976 ft 348 kts 139°
2026-04-30 19:10 52.25982 20.68028 11592 ft 379 kts 139°
2026-04-30 19:11 52.23874 20.70568 12256 ft 383 kts 139°
2026-04-30 19:11 52.19582 20.75866 13623 ft 390 kts 137°
2026-04-30 19:11 52.17420 20.78582 14287 ft 394 kts 137°
2026-04-30 19:12 52.15239 20.81337 14904 ft 398 kts 137°
2026-04-30 19:12 52.13045 20.84114 15527 ft 402 kts 136°
2026-04-30 19:12 52.10824 20.86915 16160 ft 405 kts 136°
2026-04-30 19:13 52.06311 20.92569 17409 ft 413 kts 136°
2026-04-30 19:13 52.01709 20.98296 18652 ft 420 kts 136°
2026-04-30 19:13 51.99377 21.01192 19179 ft 424 kts 136°
2026-04-30 19:14 51.97026 21.04111 19704 ft 427 kts 135°
2026-04-30 19:14 51.94655 21.07044 20213 ft 430 kts 135°
2026-04-30 19:14 51.92261 21.10004 20729 ft 433 kts 135°
2026-04-30 19:14 51.89859 21.12981 21234 ft 436 kts 135°
2026-04-30 19:15 51.87443 21.15976 21735 ft 439 kts 135°
2026-04-30 19:15 51.82549 21.22016 22728 ft 445 kts 134°
2026-04-30 19:15 51.80076 21.25056 23206 ft 448 kts 134°
2026-04-30 19:16 51.77586 21.28113 23674 ft 451 kts 134°
2026-04-30 19:16 51.75076 21.31189 24126 ft 454 kts 134°
2026-04-30 19:16 51.70036 21.37345 24940 ft 458 kts 134°
2026-04-30 19:17 51.67487 21.40450 25340 ft 460 kts 133°
2026-04-30 19:17 51.62049 21.46188 26115 ft 473 kts 140°
2026-04-30 19:17 51.59206 21.48919 26503 ft 475 kts 139°
2026-04-30 19:18 51.54473 21.53460 27145 ft 479 kts 139°
2026-04-30 19:18 51.50630 21.57141 27655 ft 482 kts 139°
2026-04-30 19:18 51.47743 21.59902 28034 ft 484 kts 139°
2026-04-30 19:19 51.44838 21.62674 28453 ft 485 kts 139°
2026-04-30 19:19 51.41874 21.65324 28973 ft 491 kts 144°
2026-04-30 19:19 51.35225 21.68685 29954 ft 514 kts 162°
2026-04-30 19:20 51.31676 21.69189 30424 ft 523 kts 171°
2026-04-30 19:20 51.28039 21.69360 30840 ft 522 kts 171°
2026-04-30 19:20 51.20803 21.69722 31746 ft 517 kts 171°
2026-04-30 19:21 51.17215 21.69913 32218 ft 514 kts 172°
2026-04-30 19:21 51.10093 21.70304 33123 ft 510 kts 172°
2026-04-30 19:22 51.03032 21.70686 33981 ft 506 kts 173°
2026-04-30 19:22 50.92529 21.71236 35057 ft 501 kts 173°
2026-04-30 19:23 50.82078 21.71791 35378 ft 500 kts 174°
2026-04-30 19:24 50.71659 21.72340 35380 ft 499 kts 174°
2026-04-30 19:25 50.54310 21.73248 35375 ft 498 kts 174°
2026-04-30 19:26 50.40500 21.73954 35369 ft 497 kts 174°
2026-04-30 19:27 50.30117 21.74495 35364 ft 496 kts 174°
2026-04-30 19:28 50.19769 21.75028 35363 ft 496 kts 174°
2026-04-30 19:29 50.05989 21.75729 35360 ft 495 kts 174°
2026-04-30 19:30 49.92233 21.76424 35366 ft 494 kts 174°
2026-04-30 19:31 49.78535 21.77116 35373 ft 493 kts 175°
2026-04-30 19:31 49.68242 21.77618 35365 ft 493 kts 175°
2026-04-30 19:32 49.61382 21.77961 35373 ft 492 kts 175°
2026-04-30 19:32 49.54539 21.78309 35366 ft 492 kts 175°
2026-04-30 19:33 49.47742 21.78650 35370 ft 491 kts 175°
2026-04-30 19:33 49.40906 21.78979 35373 ft 491 kts 175°
2026-04-30 19:34 49.34087 21.79317 35364 ft 490 kts 175°
2026-04-30 19:35 49.23861 21.79833 35370 ft 490 kts 175°
2026-04-30 19:35 49.17054 21.80169 35366 ft 489 kts 175°
2026-04-30 19:36 49.10248 21.80496 35365 ft 489 kts 175°
2026-04-30 19:36 49.00058 21.80983 35366 ft 488 kts 176°
2026-04-30 19:37 48.93265 21.81313 35364 ft 487 kts 176°
2026-04-30 19:37 48.86519 21.82100 35361 ft 485 kts 169°
2026-04-30 19:38 48.79840 21.83532 35355 ft 484 kts 169°
2026-04-30 19:38 48.73168 21.84961 35358 ft 484 kts 169°
2026-04-30 19:39 48.66499 21.86375 35355 ft 484 kts 169°
2026-04-30 19:39 48.59823 21.87772 35352 ft 484 kts 170°
2026-04-30 19:40 48.54281 21.88928 35346 ft 483 kts 170°
2026-04-30 19:40 48.47620 21.90324 35348 ft 483 kts 170°
2026-04-30 19:41 48.40989 21.91933 35349 ft 481 kts 162°
2026-04-30 19:41 48.34935 21.95908 35344 ft 472 kts 143°
2026-04-30 19:42 48.30015 22.02280 35345 ft 466 kts 130°
2026-04-30 19:42 48.25500 22.09276 35343 ft 466 kts 130°
2026-04-30 19:43 48.20958 22.16238 35344 ft 467 kts 131°
2026-04-30 19:44 48.14151 22.26672 35345 ft 467 kts 131°
2026-04-30 19:44 48.09616 22.33635 35344 ft 467 kts 131°
2026-04-30 19:45 48.05059 22.40572 35345 ft 468 kts 131°
2026-04-30 19:45 48.00497 22.47513 35343 ft 468 kts 131°
2026-04-30 19:46 47.95935 22.54457 35340 ft 468 kts 131°
2026-04-30 19:46 47.91368 22.61382 35336 ft 469 kts 131°
2026-04-30 19:47 47.86785 22.68299 35332 ft 469 kts 131°
2026-04-30 19:47 47.82182 22.75213 35327 ft 469 kts 132°
2026-04-30 19:48 47.77584 22.82116 35332 ft 470 kts 132°
2026-04-30 19:48 47.73688 22.89781 35327 ft 463 kts 114°
2026-04-30 19:49 47.71606 22.98701 35336 ft 455 kts 96°
2026-04-30 19:49 47.69899 23.12577 35327 ft 456 kts 97°
2026-04-30 19:50 47.68867 23.21854 35310 ft 455 kts 94°
2026-04-30 19:50 47.68228 23.31182 35305 ft 454 kts 91°
2026-04-30 19:51 47.67672 23.40514 35302 ft 454 kts 92°
2026-04-30 19:51 47.67027 23.49849 35300 ft 455 kts 93°
2026-04-30 19:52 47.66311 23.59176 35302 ft 455 kts 93°
2026-04-30 19:52 47.65586 23.68508 35312 ft 455 kts 93°
2026-04-30 19:53 47.64867 23.77834 35327 ft 455 kts 93°
2026-04-30 19:53 47.64048 23.87160 35342 ft 456 kts 95°
2026-04-30 19:54 47.63087 23.96468 35357 ft 457 kts 95°
2026-04-30 19:54 47.62096 24.05770 35365 ft 457 kts 95°
2026-04-30 19:55 47.61127 24.15074 35372 ft 457 kts 95°
2026-04-30 19:55 47.60178 24.24349 35373 ft 457 kts 95°
2026-04-30 19:56 47.59219 24.33670 35374 ft 457 kts 95°
2026-04-30 19:56 47.58250 24.42993 35377 ft 458 kts 95°
2026-04-30 19:57 47.57259 24.52319 35384 ft 458 kts 96°
2026-04-30 19:57 47.56264 24.61641 35388 ft 458 kts 96°
2026-04-30 19:58 47.55262 24.70967 35393 ft 459 kts 96°
2026-04-30 19:58 47.54261 24.80246 35395 ft 459 kts 96°
2026-04-30 19:59 47.53243 24.89586 35402 ft 459 kts 96°
2026-04-30 20:00 47.51700 25.03593 35401 ft 460 kts 96°
2026-04-30 20:00 47.50658 25.12934 35406 ft 460 kts 96°
2026-04-30 20:01 47.49083 25.26906 35402 ft 461 kts 96°
2026-04-30 20:01 47.48030 25.36253 35402 ft 461 kts 97°
2026-04-30 20:02 47.46430 25.50277 35402 ft 461 kts 97°
2026-04-30 20:03 47.44805 25.64298 35398 ft 462 kts 97°
2026-04-30 20:03 47.43716 25.73608 35396 ft 462 kts 97°
2026-04-30 20:04 47.42609 25.82969 35394 ft 463 kts 97°
2026-04-30 20:05 47.40945 25.97020 35389 ft 463 kts 97°
2026-04-30 20:05 47.39255 26.11109 35382 ft 464 kts 98°
2026-04-30 20:06 47.38113 26.20504 35376 ft 465 kts 98°
2026-04-30 20:06 47.36977 26.29842 35376 ft 466 kts 98°
2026-04-30 20:07 47.35825 26.39250 35186 ft 467 kts 98°
2026-04-30 20:07 47.34644 26.48759 34722 ft 468 kts 98°
2026-04-30 20:08 47.34064 26.53421 34498 ft 469 kts 98°
2026-04-30 20:08 47.33476 26.58155 34255 ft 469 kts 98°
2026-04-30 20:08 47.32884 26.62892 33971 ft 469 kts 98°
2026-04-30 20:08 47.32289 26.67616 33320 ft 471 kts 98°
2026-04-30 20:09 47.31688 26.72389 32444 ft 474 kts 98°
2026-04-30 20:09 47.31084 26.77174 31543 ft 476 kts 98°
2026-04-30 20:09 47.29869 26.86723 29878 ft 475 kts 98°
2026-04-30 20:10 47.28636 26.96320 27658 ft 477 kts 98°
2026-04-30 20:10 47.28020 27.01059 26368 ft 463 kts 98°
2026-04-30 20:10 47.27422 27.05639 25284 ft 447 kts 98°
2026-04-30 20:11 47.26298 27.14287 24034 ft 428 kts 98°
2026-04-30 20:11 47.25743 27.18592 23221 ft 428 kts 98°
2026-04-30 20:11 47.25188 27.22867 22543 ft 422 kts 98°
2026-04-30 20:12 47.24083 27.31267 21198 ft 414 kts 99°
2026-04-30 20:12 47.23535 27.35406 20535 ft 410 kts 99°
2026-04-30 20:12 47.22991 27.39508 19875 ft 407 kts 99°
2026-04-30 20:13 47.22449 27.43578 19217 ft 403 kts 99°
2026-04-30 20:13 47.21917 27.47556 18574 ft 399 kts 99°
2026-04-30 20:13 47.21382 27.51552 17913 ft 396 kts 99°
2026-04-30 20:13 47.20853 27.55524 17311 ft 395 kts 99°
2026-04-30 20:14 47.20326 27.59472 16719 ft 392 kts 99°
2026-04-30 20:14 47.19799 27.63386 16158 ft 388 kts 99°
2026-04-30 20:14 47.19274 27.67260 15605 ft 385 kts 99°
2026-04-30 20:14 47.18754 27.71100 15065 ft 381 kts 99°
2026-04-30 20:15 47.18239 27.74898 14523 ft 377 kts 99°
2026-04-30 20:15 47.17725 27.78660 13942 ft 373 kts 99°
2026-04-30 20:15 47.17214 27.82381 13369 ft 369 kts 99°
2026-04-30 20:15 47.16580 27.86024 12809 ft 367 kts 107°
2026-04-30 20:16 47.15650 27.89503 12238 ft 364 kts 110°
2026-04-30 20:16 47.14702 27.92932 11659 ft 361 kts 111°
2026-04-30 20:16 47.13771 27.96299 11408 ft 348 kts 111°
2026-04-30 20:16 47.12888 27.99495 11249 ft 324 kts 111°
2026-04-30 20:17 47.12074 28.02438 10943 ft 300 kts 111°
2026-04-30 20:17 47.11306 28.05214 10647 ft 291 kts 111°
2026-04-30 20:17 47.10542 28.07966 10399 ft 291 kts 111°
2026-04-30 20:17 47.09777 28.10718 10201 ft 288 kts 111°
2026-04-30 20:18 47.09020 28.13446 10060 ft 289 kts 111°
2026-04-30 20:18 47.08265 28.16173 9924 ft 288 kts 111°
2026-04-30 20:18 47.07511 28.18895 9787 ft 288 kts 111°
2026-04-30 20:18 47.06755 28.21609 9649 ft 287 kts 111°
2026-04-30 20:19 47.05998 28.24318 9504 ft 286 kts 111°
2026-04-30 20:19 47.05498 28.26105 9421 ft 286 kts 111°
2026-04-30 20:19 47.04483 28.29722 8867 ft 283 kts 111°
2026-04-30 20:19 47.03739 28.32384 8405 ft 282 kts 111°
2026-04-30 20:20 47.02995 28.35036 7932 ft 281 kts 111°
2026-04-30 20:20 47.02255 28.37669 7457 ft 278 kts 111°
2026-04-30 20:20 47.01342 28.40159 6997 ft 278 kts 121°
2026-04-30 20:20 47.00306 28.42538 6517 ft 277 kts 121°
2026-04-30 20:21 46.99268 28.44928 6039 ft 277 kts 121°
2026-04-30 20:21 46.98240 28.47287 5560 ft 272 kts 121°
2026-04-30 20:21 46.97570 28.48823 5259 ft 269 kts 121°
2026-04-30 20:21 46.96252 28.51838 4944 ft 251 kts 121°
2026-04-30 20:22 46.95642 28.53230 4895 ft 238 kts 120°
2026-04-30 20:22 46.94512 28.55903 4828 ft 230 kts 118°
2026-04-30 20:22 46.93724 28.57864 4726 ft 218 kts 117°
2026-04-30 20:22 46.93215 28.59145 4655 ft 214 kts 117°
2026-04-30 20:23 46.92496 28.61042 4492 ft 212 kts 110°
2026-04-30 20:23 46.92145 28.63062 4250 ft 205 kts 90°
2026-04-30 20:23 46.92165 28.65130 3988 ft 202 kts 84°
2026-04-30 20:23 46.92214 28.67181 3711 ft 201 kts 84°
2026-04-30 20:24 46.92261 28.69216 3433 ft 199 kts 84°
2026-04-30 20:24 46.92306 28.71218 3183 ft 193 kts 84°
2026-04-30 20:24 46.92348 28.73122 2909 ft 182 kts 84°
2026-04-30 20:24 46.92387 28.74902 2646 ft 168 kts 83°
2026-04-30 20:25 46.92457 28.78068 2246 ft 145 kts 82°
2026-04-30 20:25 46.92489 28.79536 2033 ft 141 kts 82°
2026-04-30 20:26 46.92545 28.82379 1588 ft 140 kts 84°
2026-04-30 20:26 46.92610 28.85209 1311 ft 143 kts 84°
2026-04-30 20:26 46.92647 28.86662 1020 ft 144 kts 85°
2026-04-30 20:27 46.92700 28.89595 615 ft 144 kts 85°
2026-04-30 20:27 46.92768 28.92479 410 ft 122 kts 89°
2026-04-30 20:28 46.92814 28.93424 409 ft 5 kts 359°
2026-04-30 20:28 46.92919 28.93415 409 ft 10 kts 356°
2026-04-30 20:29 46.93081 28.93431 408 ft 13 kts
2026-04-30 20:30 46.93174 28.93625 409 ft 12 kts 17°
2026-04-30 20:30 46.93223 28.93731 409 ft 0 kts 96°